Погода в Кацине

Нигерия     12°59′36″N   7°35′55″E
темп.,
°C
ветер,
м/с
пор.,
м/с
влажн.,
%
обл.,
%
осадки,
мм/ч
давл.,
гПа
погр.,
м
6 августа, пт
пт601:00+25юз69775 0.0 1014350
04:00+23зюз61084100 0.0 1014439
07:00+23зюз6118325 0.0 1015431
10:00+27зюз676449 0.0 1015708
13:00+31зюз555118 0.0 10131402
16:00+32з5448100 0.1 10101852
19:00+29зюз576198 0.2 1012466
22:00+26юз59737 0.0 1013329
7 августа, сб
сб701:00+25з71280100 0.1 1014529
04:00+24зюз61182100 0.0 1012384
07:00+23юз7128458 0.0 1013441
10:00+27з8106783 0.0 1014999
13:00+31зюз88537 0.0 10111291
16:00+32зюз874949 0.0 10081788
19:00+28юз586541 0.0 1010451
22:00+26юз8127033 0.0 1011417
8 августа, вс
вс801:00+25юз71278100 2.1 1011315
04:00+24зюз71382100 0.0 1010598
07:00+21юв111685100 2.6 1015527
10:00+23ю61078100 1.9 1014349
13:00+24зюз6871100 1.9 1012375
16:00+26юз5463100 0.0 1012761
19:00+24юз337199 0.0 1013194
22:00+24зюз3475100 0.0 1015190
9 августа, пн
пн901:00+22юз3481100 0.1 1015147
04:00+22ююз358322 0.0 1014138
07:00+22ю46825 0.0 1015196
10:00+26ююз44635 0.0 1016652
13:00+30зюз32497 0.0 10141491
16:00+31юз21448 0.0 10121727
19:00+29юз345253 0.0 1012155
22:00+25юз697487 0.1 1015340
10 августа, вт
вт1001:00+24зюз587927 0.1 1014385
04:00+23зюз698289 0.1 1014378
07:00+22зюз598580 0.1 1014359
10:00+27зюз77665 0.0 1015755
13:00+30з6653100 0.0 10131341
16:00+31з65499 0.0 10101539
19:00+29з58574 0.0 1010456
22:00+27юз610665 0.1 1012411